UAE7X OMDB-OSAP

Flight info

Callsign UAE7X
Flight time 2h 58m
Altitude 30000
Route RIDAP2F RIDAP M557 TUMAK L602 RALKA G795 TASMI L602 GADSI M703 PASIP L200 DAPUK DCT TAN TANGO2A
Aircraft A388/J-SADE2E3FGHIJ3J4J5M1RWXY/LB1D1

Departure

Time 2026-04-26 09:29
Airport Dubai International Airport (OMDB)

Arrival

Time 2026-04-26 12:28
Airport Aleppo International Airport (OSAP)
Time Latitude Longitude Altitude Speed Heading
2026-04-26 08:14 25.25055 55.35984 27 ft 0 kts 211°
2026-04-26 09:04 25.25056 55.35985 27 ft 2 kts 211°
2026-04-26 09:04 25.25078 55.35999 25 ft 4 kts 211°
2026-04-26 09:05 25.25099 55.36013 25 ft 2 kts 211°
2026-04-26 09:05 25.25118 55.36029 25 ft 4 kts 236°
2026-04-26 09:05 25.25126 55.36055 24 ft 4 kts 282°
2026-04-26 09:05 25.25116 55.36079 24 ft 4 kts 301°
2026-04-26 09:06 25.25103 55.36103 25 ft 2 kts 301°
2026-04-26 09:06 25.25102 55.36104 25 ft 0 kts 301°
2026-04-26 09:12 25.25108 55.36093 27 ft 4 kts 301°
2026-04-26 09:13 25.25134 55.36046 27 ft 11 kts 301°
2026-04-26 09:13 25.25180 55.35963 27 ft 14 kts 301°
2026-04-26 09:13 25.25230 55.35873 27 ft 14 kts 301°
2026-04-26 09:13 25.25281 55.35782 27 ft 14 kts 301°
2026-04-26 09:14 25.25332 55.35689 26 ft 14 kts 302°
2026-04-26 09:14 25.25384 55.35595 26 ft 14 kts 301°
2026-04-26 09:14 25.25437 55.35500 26 ft 15 kts 301°
2026-04-26 09:14 25.25490 55.35404 28 ft 15 kts 301°
2026-04-26 09:15 25.25543 55.35308 32 ft 15 kts 301°
2026-04-26 09:15 25.25596 55.35211 28 ft 14 kts 301°
2026-04-26 09:15 25.25664 55.35162 30 ft 11 kts
2026-04-26 09:15 25.25739 55.35200 29 ft 13 kts 31°
2026-04-26 09:16 25.25821 55.35255 29 ft 14 kts 31°
2026-04-26 09:16 25.25897 55.35306 30 ft 13 kts 31°
2026-04-26 09:16 25.25959 55.35361 28 ft 5 kts 50°
2026-04-26 09:16 25.25960 55.35362 28 ft 0 kts 51°
2026-04-26 09:17 25.25967 55.35371 27 ft 5 kts 53°
2026-04-26 09:17 25.25991 55.35427 30 ft 11 kts 75°
2026-04-26 09:18 25.25986 55.35534 28 ft 17 kts 111°
2026-04-26 09:18 25.25916 55.35670 30 ft 22 kts 122°
2026-04-26 09:18 25.25830 55.35824 26 ft 25 kts 122°
2026-04-26 09:18 25.25736 55.35994 26 ft 27 kts 121°
2026-04-26 09:19 25.25647 55.36155 27 ft 24 kts 122°
2026-04-26 09:19 25.25555 55.36321 27 ft 26 kts 121°
2026-04-26 09:19 25.25456 55.36500 27 ft 28 kts 121°
2026-04-26 09:19 25.25351 55.36688 27 ft 29 kts 121°
2026-04-26 09:20 25.25245 55.36881 27 ft 29 kts 121°
2026-04-26 09:20 25.25139 55.37071 29 ft 29 kts 122°
2026-04-26 09:20 25.25032 55.37264 32 ft 29 kts 121°
2026-04-26 09:20 25.24926 55.37455 36 ft 29 kts 121°
2026-04-26 09:21 25.24821 55.37644 41 ft 27 kts 121°
2026-04-26 09:21 25.24773 55.37732 43 ft 12 kts 121°
2026-04-26 09:21 25.24724 55.37818 44 ft 13 kts 121°
2026-04-26 09:21 25.24688 55.37884 46 ft 7 kts 121°
2026-04-26 09:22 25.24675 55.37910 46 ft 3 kts 105°
2026-04-26 09:22 25.24674 55.37917 46 ft 0 kts 97°
2026-04-26 09:25 25.24673 55.37924 46 ft 3 kts 90°
2026-04-26 09:25 25.24682 55.37953 47 ft 6 kts 53°
2026-04-26 09:26 25.24692 55.37965 47 ft 0 kts 34°
2026-04-26 09:27 25.24703 55.37973 47 ft 6 kts 34°
2026-04-26 09:27 25.24755 55.38010 47 ft 10 kts 31°
2026-04-26 09:27 25.24790 55.38029 47 ft 4 kts 351°
2026-04-26 09:27 25.24822 55.38004 46 ft 6 kts 310°
2026-04-26 09:28 25.24828 55.37995 46 ft 0 kts 302°
2026-04-26 09:28 25.24835 55.37984 46 ft 12 kts 302°
2026-04-26 09:29 25.25020 55.37650 38 ft 89 kts 301°
2026-04-26 09:29 25.25455 55.36869 27 ft 145 kts 301°
2026-04-26 09:29 25.26016 55.35826 242 ft 160 kts 301°
2026-04-26 09:29 25.26581 55.34771 786 ft 161 kts 303°
2026-04-26 09:30 25.27193 55.33691 1199 ft 169 kts 304°
2026-04-26 09:30 25.27843 55.32553 1577 ft 179 kts 303°
2026-04-26 09:30 25.28509 55.31365 2077 ft 185 kts 303°
2026-04-26 09:30 25.29182 55.30155 2631 ft 187 kts 303°
2026-04-26 09:31 25.29879 55.28959 3236 ft 184 kts 307°
2026-04-26 09:31 25.30631 55.27788 3664 ft 193 kts 306°
2026-04-26 09:31 25.31406 55.26548 3924 ft 198 kts 306°
2026-04-26 09:31 25.32208 55.25291 4238 ft 200 kts 306°
2026-04-26 09:32 25.33013 55.24031 4574 ft 202 kts 306°
2026-04-26 09:32 25.33849 55.22721 4729 ft 221 kts 306°
2026-04-26 09:32 25.34765 55.21284 5081 ft 235 kts 305°
2026-04-26 09:32 25.35596 55.19702 5719 ft 239 kts 289°
2026-04-26 09:33 25.35847 55.17900 6482 ft 239 kts 268°
2026-04-26 09:33 25.35749 55.16033 6947 ft 253 kts 268°
2026-04-26 09:33 25.35665 55.14006 7223 ft 272 kts 268°
2026-04-26 09:33 25.35592 55.11893 7825 ft 276 kts 268°
2026-04-26 09:34 25.35519 55.09767 8541 ft 277 kts 268°
2026-04-26 09:34 25.35445 55.07654 9225 ft 279 kts 268°
2026-04-26 09:34 25.35369 55.05494 9899 ft 282 kts 268°
2026-04-26 09:34 25.35290 55.03290 10275 ft 296 kts 268°
2026-04-26 09:35 25.35233 55.01720 10381 ft 309 kts 268°
2026-04-26 09:35 25.35145 54.99309 10549 ft 326 kts 268°
2026-04-26 09:35 25.35052 54.96753 10912 ft 336 kts 268°
2026-04-26 09:35 25.34957 54.94164 11500 ft 338 kts 268°
2026-04-26 09:36 25.35004 54.91549 12093 ft 341 kts 275°
2026-04-26 09:36 25.35396 54.88946 12667 ft 346 kts 283°
2026-04-26 09:36 25.36101 54.86391 13251 ft 349 kts 287°
2026-04-26 09:36 25.36858 54.83826 13816 ft 352 kts 286°
2026-04-26 09:37 25.37599 54.81238 14400 ft 353 kts 286°
2026-04-26 09:37 25.38337 54.78643 14939 ft 356 kts 286°
2026-04-26 09:37 25.39083 54.76019 15507 ft 357 kts 286°
2026-04-26 09:37 25.39833 54.73386 16047 ft 360 kts 286°
2026-04-26 09:38 25.40590 54.70729 16580 ft 363 kts 286°
2026-04-26 09:38 25.41341 54.68094 17108 ft 365 kts 287°
2026-04-26 09:38 25.42106 54.65407 17630 ft 368 kts 287°
2026-04-26 09:38 25.42876 54.62701 18136 ft 370 kts 287°
2026-04-26 09:39 25.43654 54.59980 18588 ft 372 kts 287°
2026-04-26 09:39 25.44463 54.57241 19058 ft 374 kts 287°
2026-04-26 09:39 25.45281 54.54500 19481 ft 376 kts 287°
2026-04-26 09:39 25.46103 54.51745 19931 ft 378 kts 286°
2026-04-26 09:40 25.46926 54.48970 20370 ft 380 kts 286°
2026-04-26 09:40 25.47752 54.46178 20808 ft 382 kts 285°
2026-04-26 09:40 25.48580 54.43374 21225 ft 384 kts 285°
2026-04-26 09:40 25.49413 54.40551 21671 ft 386 kts 285°
2026-04-26 09:41 25.50247 54.37718 22097 ft 388 kts 285°
2026-04-26 09:41 25.51086 54.34869 22527 ft 390 kts 285°
2026-04-26 09:41 25.51928 54.32008 22957 ft 392 kts 284°
2026-04-26 09:41 25.52774 54.29128 23380 ft 394 kts 284°
2026-04-26 09:42 25.53613 54.26270 23750 ft 395 kts 284°
2026-04-26 09:42 25.54466 54.23367 24133 ft 396 kts 284°
2026-04-26 09:42 25.55320 54.20458 24504 ft 398 kts 284°
2026-04-26 09:42 25.56178 54.17536 24867 ft 399 kts 284°
2026-04-26 09:43 25.57036 54.14609 25232 ft 400 kts 284°
2026-04-26 09:43 25.57900 54.11662 25596 ft 402 kts 285°
2026-04-26 09:43 25.58763 54.08715 25978 ft 403 kts 285°
2026-04-26 09:43 25.59627 54.05756 26377 ft 405 kts 285°
2026-04-26 09:44 25.60484 54.02772 26774 ft 406 kts 284°
2026-04-26 09:44 25.61336 53.99776 27194 ft 408 kts 284°
2026-04-26 09:44 25.62189 53.96770 27621 ft 410 kts 284°
2026-04-26 09:44 25.63038 53.93785 28062 ft 412 kts 285°
2026-04-26 09:45 25.63900 53.90751 28513 ft 414 kts 285°
2026-04-26 09:45 25.64769 53.87693 28765 ft 421 kts 285°
2026-04-26 09:45 25.65660 53.84556 28971 ft 429 kts 285°
2026-04-26 09:45 25.66560 53.81388 29432 ft 431 kts 285°
2026-04-26 09:46 25.67462 53.78209 29906 ft 433 kts 285°
2026-04-26 09:46 25.68368 53.75016 30334 ft 434 kts 285°
2026-04-26 09:46 25.69272 53.71826 30810 ft 434 kts 285°
2026-04-26 09:46 25.70175 53.68626 31289 ft 434 kts 285°
2026-04-26 09:47 25.71063 53.65466 31712 ft 435 kts 286°
2026-04-26 09:47 25.71975 53.62219 32166 ft 436 kts 286°
2026-04-26 09:47 25.72864 53.59049 32609 ft 436 kts 286°
2026-04-26 09:47 25.73768 53.55827 33045 ft 437 kts 287°
2026-04-26 09:48 25.74671 53.52603 33573 ft 436 kts 287°
2026-04-26 09:48 25.75567 53.49404 34212 ft 431 kts 287°
2026-04-26 09:48 25.76458 53.46231 34688 ft 430 kts 287°
2026-04-26 09:48 25.77347 53.43064 35105 ft 430 kts 287°
2026-04-26 09:49 25.78235 53.39899 35523 ft 429 kts 287°
2026-04-26 09:49 25.79121 53.36737 35852 ft 431 kts 287°
2026-04-26 09:49 25.80010 53.33562 35894 ft 430 kts 287°
2026-04-26 09:50 25.81786 53.27207 35893 ft 432 kts 287°
2026-04-26 09:50 25.83551 53.20880 35892 ft 431 kts 287°
2026-04-26 09:51 25.85771 53.14688 35894 ft 433 kts 293°
2026-04-26 09:51 25.88263 53.08606 35897 ft 432 kts 292°
2026-04-26 09:52 25.90736 53.02509 35893 ft 432 kts 292°
2026-04-26 09:52 25.94431 52.93402 35898 ft 432 kts 292°
2026-04-26 09:53 25.96899 52.87311 35900 ft 432 kts 292°
2026-04-26 09:53 25.99365 52.81217 35905 ft 432 kts 292°
2026-04-26 09:54 26.01829 52.75119 35904 ft 432 kts 292°
2026-04-26 09:54 26.04451 52.69107 35904 ft 432 kts 295°
2026-04-26 09:55 26.07174 52.63188 35910 ft 432 kts 294°
2026-04-26 09:55 26.09878 52.57215 35905 ft 432 kts 294°
2026-04-26 09:56 26.12568 52.51233 35906 ft 431 kts 294°
2026-04-26 09:56 26.15261 52.45261 35905 ft 431 kts 294°
2026-04-26 09:57 26.17948 52.39300 35909 ft 431 kts 294°
2026-04-26 09:57 26.20616 52.33368 35906 ft 431 kts 294°
2026-04-26 09:58 26.23279 52.27390 35907 ft 430 kts 293°
2026-04-26 09:58 26.25869 52.21377 35912 ft 430 kts 293°
2026-04-26 09:59 26.28457 52.15370 35910 ft 430 kts 293°
2026-04-26 09:59 26.31052 52.09357 35913 ft 430 kts 293°
2026-04-26 10:00 26.33644 52.03357 35913 ft 430 kts 293°
2026-04-26 10:00 26.36240 51.97349 35910 ft 430 kts 293°
2026-04-26 10:01 26.38570 51.91269 35912 ft 428 kts 288°
2026-04-26 10:01 26.40650 51.85042 35911 ft 428 kts 288°
2026-04-26 10:02 26.42742 51.78827 35913 ft 428 kts 288°
2026-04-26 10:02 26.44831 51.72602 35918 ft 428 kts 288°
2026-04-26 10:03 26.46913 51.66381 35920 ft 428 kts 288°
2026-04-26 10:03 26.48990 51.60158 35922 ft 427 kts 288°
2026-04-26 10:04 26.51046 51.53979 35918 ft 427 kts 288°
2026-04-26 10:04 26.53113 51.47761 35921 ft 426 kts 288°
2026-04-26 10:05 26.55171 51.41556 35927 ft 426 kts 288°
2026-04-26 10:05 26.57225 51.35354 35916 ft 426 kts 288°
2026-04-26 10:06 26.59280 51.29142 35923 ft 426 kts 288°
2026-04-26 10:06 26.61321 51.22980 35925 ft 426 kts 288°
2026-04-26 10:07 26.63379 51.16763 35926 ft 426 kts 288°
2026-04-26 10:07 26.65434 51.10542 35928 ft 426 kts 288°
2026-04-26 10:08 26.67489 51.04311 35932 ft 427 kts 288°
2026-04-26 10:08 26.69532 50.98074 35931 ft 427 kts 287°
2026-04-26 10:09 26.71526 50.91824 35941 ft 427 kts 287°
2026-04-26 10:09 26.73511 50.85596 35934 ft 427 kts 287°
2026-04-26 10:10 26.75509 50.79336 35942 ft 427 kts 287°
2026-04-26 10:10 26.77506 50.73070 35941 ft 427 kts 287°
2026-04-26 10:11 26.79835 50.66938 35943 ft 430 kts 294°
2026-04-26 10:11 26.83009 50.61221 35939 ft 435 kts 301°
2026-04-26 10:12 26.86823 50.55919 35940 ft 437 kts 304°
2026-04-26 10:12 26.90635 50.50674 35941 ft 436 kts 304°
2026-04-26 10:13 26.94726 50.45598 35940 ft 439 kts 307°
2026-04-26 10:13 26.98924 50.40612 35935 ft 439 kts 307°
2026-04-26 10:14 27.03107 50.35626 35941 ft 439 kts 307°
2026-04-26 10:14 27.07287 50.30629 35937 ft 439 kts 307°
2026-04-26 10:15 27.11446 50.25596 35944 ft 439 kts 307°
2026-04-26 10:15 27.15655 50.20669 35940 ft 443 kts 311°
2026-04-26 10:16 27.20524 50.16330 35945 ft 449 kts 317°
2026-04-26 10:16 27.25573 50.12170 35949 ft 449 kts 316°
2026-04-26 10:17 27.30613 50.07994 35951 ft 450 kts 316°
2026-04-26 10:17 27.35658 50.03817 35935 ft 450 kts 316°
2026-04-26 10:18 27.40593 49.99569 35941 ft 448 kts 314°
2026-04-26 10:18 27.45492 49.95211 35947 ft 449 kts 314°
2026-04-26 10:19 27.50408 49.90867 35954 ft 449 kts 315°
2026-04-26 10:19 27.55333 49.86525 35952 ft 449 kts 315°
2026-04-26 10:20 27.59430 49.82912 35953 ft 449 kts 315°
2026-04-26 10:20 27.65154 49.77857 35950 ft 449 kts 314°
2026-04-26 10:21 27.70079 49.73502 35950 ft 450 kts 314°
2026-04-26 10:21 27.74176 49.69875 35950 ft 450 kts 314°
2026-04-26 10:22 27.79107 49.65504 35949 ft 450 kts 314°
2026-04-26 10:22 27.84028 49.61113 35960 ft 450 kts 314°
2026-04-26 10:23 27.88947 49.56716 35952 ft 451 kts 314°
2026-04-26 10:23 27.93871 49.52310 35953 ft 452 kts 314°
2026-04-26 10:24 27.98807 49.47891 35957 ft 452 kts 314°
2026-04-26 10:24 28.03712 49.43493 35957 ft 453 kts 314°
2026-04-26 10:25 28.08622 49.39019 35956 ft 453 kts 314°
2026-04-26 10:25 28.13535 49.34524 35959 ft 454 kts 314°
2026-04-26 10:26 28.18450 49.30030 35965 ft 454 kts 314°
2026-04-26 10:26 28.23374 49.25525 35962 ft 455 kts 314°
2026-04-26 10:27 28.28294 49.21019 35961 ft 455 kts 314°
2026-04-26 10:27 28.33217 49.16506 35959 ft 454 kts 313°
2026-04-26 10:28 28.38130 49.11995 35958 ft 454 kts 313°
2026-04-26 10:28 28.43294 49.07818 35955 ft 460 kts 318°
2026-04-26 10:29 28.48600 49.03757 35956 ft 459 kts 318°
2026-04-26 10:29 28.53901 48.99684 35952 ft 460 kts 318°
2026-04-26 10:30 28.59207 48.95606 35954 ft 460 kts 318°
2026-04-26 10:30 28.64522 48.91518 35950 ft 460 kts 318°
2026-04-26 10:31 28.69801 48.87453 35954 ft 460 kts 318°
2026-04-26 10:31 28.75117 48.83354 35956 ft 461 kts 318°
2026-04-26 10:32 28.80435 48.79249 35958 ft 461 kts 318°
2026-04-26 10:32 28.85730 48.75186 35951 ft 462 kts 318°
2026-04-26 10:33 28.91076 48.71097 35945 ft 462 kts 318°
2026-04-26 10:33 28.96414 48.67003 35956 ft 462 kts 318°
2026-04-26 10:34 29.01757 48.62898 35959 ft 463 kts 318°
2026-04-26 10:34 29.07098 48.58788 35962 ft 463 kts 318°
2026-04-26 10:35 29.12413 48.54694 35956 ft 463 kts 318°
2026-04-26 10:35 29.17771 48.50562 35959 ft 464 kts 318°
2026-04-26 10:36 29.23123 48.46429 35957 ft 464 kts 317°
2026-04-26 10:36 29.28487 48.42280 35956 ft 465 kts 317°
2026-04-26 10:37 29.33847 48.38131 35958 ft 465 kts 317°
2026-04-26 10:37 29.39219 48.33966 35960 ft 466 kts 317°
2026-04-26 10:38 29.44638 48.29859 35960 ft 471 kts 321°
2026-04-26 10:38 29.50341 48.26139 35949 ft 472 kts 321°
2026-04-26 10:39 29.55999 48.22412 35956 ft 471 kts 321°
2026-04-26 10:39 29.61691 48.18659 35956 ft 472 kts 321°
2026-04-26 10:40 29.67387 48.14901 35956 ft 472 kts 321°
2026-04-26 10:40 29.73082 48.11138 35952 ft 472 kts 321°
2026-04-26 10:41 29.78777 48.07372 35951 ft 472 kts 321°
2026-04-26 10:41 29.84478 48.03597 35945 ft 472 kts 321°
2026-04-26 10:42 29.90141 47.99841 35940 ft 472 kts 321°
2026-04-26 10:42 29.95841 47.96056 35939 ft 472 kts 321°
2026-04-26 10:43 30.01252 47.91898 35937 ft 462 kts 313°
2026-04-26 10:43 30.05891 47.86888 35932 ft 452 kts 304°
2026-04-26 10:44 30.09970 47.81450 35937 ft 451 kts 303°
2026-04-26 10:44 30.14091 47.75982 35933 ft 451 kts 303°
2026-04-26 10:45 30.18199 47.70503 35935 ft 451 kts 303°
2026-04-26 10:45 30.22305 47.65010 35927 ft 451 kts 303°
2026-04-26 10:46 30.26411 47.59505 35930 ft 451 kts 303°
2026-04-26 10:46 30.30511 47.54002 35928 ft 451 kts 303°
2026-04-26 10:47 30.34584 47.48528 35929 ft 451 kts 303°
2026-04-26 10:47 30.38684 47.43010 35919 ft 451 kts 303°
2026-04-26 10:48 30.42773 47.37499 35934 ft 451 kts 303°
2026-04-26 10:48 30.46855 47.31989 35878 ft 450 kts 303°
2026-04-26 10:49 30.50880 47.26558 35914 ft 437 kts 303°
2026-04-26 10:49 30.54670 47.21113 35918 ft 430 kts 298°
2026-04-26 10:50 30.57248 47.16217 35914 ft 425 kts 292°
2026-04-26 10:50 30.60003 47.08957 35914 ft 421 kts 287°
2026-04-26 10:51 30.63306 46.99494 35909 ft 421 kts 287°
2026-04-26 10:52 30.65496 46.93183 35910 ft 421 kts 287°
2026-04-26 10:52 30.67679 46.86862 35911 ft 421 kts 287°
2026-04-26 10:53 30.69844 46.80580 35901 ft 421 kts 287°
2026-04-26 10:53 30.72022 46.74250 35900 ft 422 kts 287°
2026-04-26 10:54 30.75288 46.64734 35902 ft 422 kts 287°
2026-04-26 10:54 30.77463 46.58383 35900 ft 422 kts 287°
2026-04-26 10:55 30.79620 46.52073 35898 ft 422 kts 287°
2026-04-26 10:55 30.81427 46.46776 35898 ft 423 kts 287°
2026-04-26 10:56 30.83960 46.39341 35898 ft 423 kts 287°
2026-04-26 10:56 30.86124 46.32974 35896 ft 423 kts 287°
2026-04-26 10:57 30.88284 46.26606 35893 ft 423 kts 287°
2026-04-26 10:57 30.90440 46.20238 35890 ft 423 kts 287°
2026-04-26 10:58 30.92581 46.13902 35888 ft 423 kts 287°
2026-04-26 10:58 30.94732 46.07526 35885 ft 423 kts 286°
2026-04-26 10:59 30.96880 46.01146 35883 ft 423 kts 286°
2026-04-26 10:59 30.99032 45.94742 35884 ft 423 kts 286°
2026-04-26 11:00 31.01178 45.88344 35888 ft 423 kts 286°
2026-04-26 11:00 31.03321 45.81943 35886 ft 424 kts 286°
2026-04-26 11:01 31.05462 45.75534 35887 ft 424 kts 286°
2026-04-26 11:01 31.07599 45.69125 35887 ft 424 kts 286°
2026-04-26 11:02 31.09723 45.62743 35884 ft 424 kts 286°
2026-04-26 11:02 31.11872 45.56274 35884 ft 425 kts 286°
2026-04-26 11:03 31.13992 45.49880 35887 ft 425 kts 286°
2026-04-26 11:03 31.16120 45.43449 35889 ft 425 kts 286°
2026-04-26 11:04 31.18243 45.37018 35884 ft 425 kts 286°
2026-04-26 11:04 31.19311 45.33779 36083 ft 428 kts 286°
2026-04-26 11:04 31.20378 45.30541 36609 ft 425 kts 286°
2026-04-26 11:05 31.21437 45.27328 37151 ft 422 kts 286°
2026-04-26 11:05 31.22491 45.24123 37662 ft 420 kts 285°
2026-04-26 11:05 31.23527 45.20964 37874 ft 425 kts 285°
2026-04-26 11:05 31.24573 45.17780 37888 ft 416 kts 285°
2026-04-26 11:06 31.26303 45.12503 37894 ft 416 kts 285°
2026-04-26 11:06 31.28706 45.05148 37891 ft 417 kts 285°
2026-04-26 11:07 31.30775 44.98809 37888 ft 417 kts 285°
2026-04-26 11:07 31.32841 44.92468 37888 ft 417 kts 285°
2026-04-26 11:08 31.34554 44.87200 37886 ft 417 kts 285°
2026-04-26 11:08 31.36613 44.80859 37889 ft 416 kts 285°
2026-04-26 11:09 31.38667 44.74518 37885 ft 417 kts 285°
2026-04-26 11:09 31.40716 44.68178 37887 ft 417 kts 285°
2026-04-26 11:10 31.42766 44.61826 37891 ft 417 kts 285°
2026-04-26 11:10 31.44815 44.55464 37899 ft 418 kts 285°
2026-04-26 11:11 31.46862 44.49095 37901 ft 418 kts 285°
2026-04-26 11:11 31.48910 44.42711 37917 ft 418 kts 285°
2026-04-26 11:12 31.50943 44.36365 37902 ft 419 kts 285°
2026-04-26 11:12 31.52991 44.29968 37909 ft 419 kts 285°
2026-04-26 11:13 31.55030 44.23567 37912 ft 419 kts 285°
2026-04-26 11:13 31.57069 44.17153 37913 ft 419 kts 285°
2026-04-26 11:14 31.59103 44.10750 37914 ft 419 kts 285°
2026-04-26 11:14 31.61137 44.04332 37920 ft 419 kts 285°
2026-04-26 11:15 31.63168 43.97912 37920 ft 419 kts 285°
2026-04-26 11:15 31.65184 43.91525 37927 ft 420 kts 284°
2026-04-26 11:16 31.67208 43.85104 37928 ft 420 kts 284°
2026-04-26 11:16 31.69230 43.78673 37926 ft 420 kts 284°
2026-04-26 11:17 31.71248 43.72243 37928 ft 420 kts 284°
2026-04-26 11:17 31.72258 43.69015 38096 ft 422 kts 284°
2026-04-26 11:17 31.73271 43.65780 38585 ft 420 kts 284°
2026-04-26 11:18 31.74279 43.62560 38992 ft 418 kts 284°
2026-04-26 11:18 31.75281 43.59354 39317 ft 418 kts 284°
2026-04-26 11:18 31.76284 43.56140 39641 ft 418 kts 284°
2026-04-26 11:18 31.77270 43.52976 39880 ft 420 kts 284°
2026-04-26 11:19 31.79273 43.46547 39933 ft 414 kts 284°
2026-04-26 11:19 31.81251 43.40174 39930 ft 416 kts 284°
2026-04-26 11:20 31.82897 43.34863 39928 ft 416 kts 284°
2026-04-26 11:20 31.85209 43.27388 39934 ft 416 kts 284°
2026-04-26 11:21 31.87181 43.20991 39926 ft 416 kts 284°
2026-04-26 11:21 31.89136 43.14639 39921 ft 415 kts 284°
2026-04-26 11:22 31.91101 43.08240 39930 ft 415 kts 284°
2026-04-26 11:22 31.93062 43.01841 39923 ft 415 kts 284°
2026-04-26 11:23 31.95019 42.95445 39922 ft 415 kts 284°
2026-04-26 11:23 31.96973 42.89043 39927 ft 415 kts 284°
2026-04-26 11:24 31.98924 42.82635 39927 ft 416 kts 284°
2026-04-26 11:24 32.00873 42.76224 39927 ft 416 kts 284°
2026-04-26 11:25 32.02808 42.69843 39929 ft 416 kts 284°
2026-04-26 11:25 32.04752 42.63422 39930 ft 416 kts 284°
2026-04-26 11:26 32.06692 42.57001 39929 ft 416 kts 284°
2026-04-26 11:26 32.08628 42.50576 39927 ft 416 kts 284°
2026-04-26 11:27 32.10561 42.44152 39932 ft 416 kts 284°
2026-04-26 11:27 32.12479 42.37760 39931 ft 416 kts 284°
2026-04-26 11:28 32.14406 42.31322 39933 ft 416 kts 284°
2026-04-26 11:28 32.16331 42.24890 39933 ft 416 kts 284°
2026-04-26 11:29 32.18252 42.18453 39931 ft 416 kts 284°
2026-04-26 11:29 32.20168 42.12016 39934 ft 415 kts 284°
2026-04-26 11:30 32.21758 42.06665 39935 ft 415 kts 284°
2026-04-26 11:30 32.23992 41.99132 39935 ft 415 kts 284°
2026-04-26 11:31 32.25897 41.92692 39934 ft 415 kts 284°
2026-04-26 11:31 32.27789 41.86283 39933 ft 415 kts 283°
2026-04-26 11:32 32.29689 41.79832 39932 ft 415 kts 283°
2026-04-26 11:32 32.31587 41.73375 39929 ft 415 kts 283°
2026-04-26 11:33 32.33479 41.66922 39924 ft 416 kts 283°
2026-04-26 11:33 32.35372 41.60455 39928 ft 416 kts 283°
2026-04-26 11:34 32.37248 41.54031 39930 ft 416 kts 283°
2026-04-26 11:34 32.39133 41.47562 39929 ft 416 kts 283°
2026-04-26 11:35 32.41018 41.41080 39929 ft 416 kts 283°
2026-04-26 11:35 32.42594 41.35649 39927 ft 416 kts 283°
2026-04-26 11:36 32.44774 41.28119 39929 ft 416 kts 283°
2026-04-26 11:36 32.46648 41.21634 39925 ft 416 kts 283°
2026-04-26 11:37 32.48517 41.15149 39926 ft 416 kts 283°
2026-04-26 11:37 32.50384 41.08655 39922 ft 416 kts 283°
2026-04-26 11:38 32.52248 41.02162 39923 ft 416 kts 283°
2026-04-26 11:38 32.54109 40.95661 39920 ft 416 kts 283°
2026-04-26 11:39 32.55957 40.89193 39916 ft 416 kts 283°
2026-04-26 11:39 32.57814 40.82680 39922 ft 416 kts 283°
2026-04-26 11:40 32.59664 40.76176 39927 ft 417 kts 283°
2026-04-26 11:40 32.61514 40.69657 39926 ft 417 kts 283°
2026-04-26 11:42 32.68879 40.43558 39929 ft 418 kts 283°
2026-04-26 11:43 32.70720 40.37001 39930 ft 418 kts 283°
2026-04-26 11:43 32.72557 40.30443 39931 ft 419 kts 283°
2026-04-26 11:44 32.74394 40.23869 39930 ft 419 kts 283°
2026-04-26 11:44 32.76214 40.17343 39930 ft 419 kts 283°
2026-04-26 11:45 32.78044 40.10762 39934 ft 419 kts 283°
2026-04-26 11:45 32.79872 40.04175 39934 ft 419 kts 283°
2026-04-26 11:46 32.81695 39.97589 39935 ft 420 kts 283°
2026-04-26 11:46 32.83517 39.90996 39938 ft 420 kts 283°
2026-04-26 11:47 32.85339 39.84384 39936 ft 420 kts 283°
2026-04-26 11:47 32.87157 39.77774 39934 ft 421 kts 283°
2026-04-26 11:48 32.88973 39.71153 39937 ft 421 kts 283°
2026-04-26 11:48 32.90777 39.64562 39935 ft 422 kts 283°
2026-04-26 11:49 32.92604 39.57870 39935 ft 423 kts 283°
2026-04-26 11:49 32.94407 39.51250 39932 ft 423 kts 283°
2026-04-26 11:50 32.96223 39.44571 39929 ft 424 kts 283°
2026-04-26 11:50 32.98037 39.37879 39922 ft 425 kts 283°
2026-04-26 11:51 32.99849 39.31178 39923 ft 425 kts 283°
2026-04-26 11:51 33.01661 39.24463 39921 ft 425 kts 283°
2026-04-26 11:52 33.03164 39.18885 39925 ft 425 kts 282°
2026-04-26 11:52 33.05261 39.11075 39918 ft 425 kts 282°
2026-04-26 11:53 33.07059 39.04365 39918 ft 424 kts 282°
2026-04-26 11:54 33.10984 38.94802 39911 ft 440 kts 300°
2026-04-26 11:54 33.15364 38.89589 39906 ft 457 kts 314°
2026-04-26 11:55 33.20818 38.85477 39907 ft 465 kts 319°
2026-04-26 11:55 33.26341 38.81451 39905 ft 465 kts 319°
2026-04-26 11:56 33.31861 38.77412 39911 ft 465 kts 319°
2026-04-26 11:56 33.37384 38.73371 39910 ft 465 kts 319°
2026-04-26 11:57 33.41983 38.70003 39914 ft 466 kts 319°
2026-04-26 11:57 33.47545 38.65993 39917 ft 470 kts 322°
2026-04-26 11:58 33.53556 38.62682 39919 ft 478 kts 327°
2026-04-26 11:58 33.59656 38.59516 39927 ft 477 kts 327°
2026-04-26 11:59 33.65750 38.56342 39927 ft 478 kts 327°
2026-04-26 11:59 33.71828 38.53182 39931 ft 478 kts 327°
2026-04-26 12:00 33.77938 38.50002 39932 ft 479 kts 327°
2026-04-26 12:00 33.84060 38.46811 39934 ft 479 kts 328°
2026-04-26 12:01 33.90186 38.43614 39936 ft 480 kts 328°
2026-04-26 12:01 33.96318 38.40407 39922 ft 480 kts 328°
2026-04-26 12:02 34.02446 38.37198 39938 ft 480 kts 328°
2026-04-26 12:02 34.08583 38.33979 39944 ft 481 kts 328°
2026-04-26 12:03 34.14678 38.30777 39943 ft 481 kts 328°
2026-04-26 12:03 34.20817 38.27547 39944 ft 481 kts 328°
2026-04-26 12:04 34.26952 38.24313 39946 ft 481 kts 328°
2026-04-26 12:04 34.33099 38.21068 39944 ft 482 kts 328°
2026-04-26 12:05 34.39247 38.17817 39949 ft 482 kts 328°
2026-04-26 12:05 34.45404 38.14557 39946 ft 483 kts 328°
2026-04-26 12:06 34.51570 38.11286 39952 ft 484 kts 328°
2026-04-26 12:06 34.57743 38.08007 39952 ft 484 kts 328°
2026-04-26 12:07 34.63921 38.04719 39956 ft 485 kts 329°
2026-04-26 12:07 34.70069 38.01443 39925 ft 485 kts 329°
2026-04-26 12:07 34.73139 37.99807 39729 ft 479 kts 329°
2026-04-26 12:08 34.76183 37.98185 39504 ft 476 kts 329°
2026-04-26 12:08 34.79218 37.96562 39276 ft 476 kts 329°
2026-04-26 12:08 34.82267 37.94928 39050 ft 478 kts 329°
2026-04-26 12:08 34.85315 37.93293 38839 ft 479 kts 329°
2026-04-26 12:09 34.88370 37.91655 38615 ft 480 kts 329°
2026-04-26 12:09 34.91431 37.90014 38294 ft 480 kts 329°
2026-04-26 12:09 34.94450 37.88392 37663 ft 481 kts 329°
2026-04-26 12:09 34.97505 37.86753 37167 ft 478 kts 329°
2026-04-26 12:10 35.00559 37.85111 36495 ft 479 kts 329°
2026-04-26 12:10 35.03597 37.83477 35860 ft 478 kts 330°
2026-04-26 12:10 35.06643 37.81836 35185 ft 478 kts 330°
2026-04-26 12:10 35.09702 37.80186 34284 ft 483 kts 330°
2026-04-26 12:11 35.12792 37.78516 33220 ft 488 kts 331°
2026-04-26 12:11 35.15917 37.76828 32144 ft 492 kts 331°
2026-04-26 12:11 35.19052 37.75135 31170 ft 494 kts 331°
2026-04-26 12:11 35.22188 37.73442 30425 ft 490 kts 332°
2026-04-26 12:12 35.25300 37.71762 29734 ft 485 kts 332°
2026-04-26 12:12 35.28368 37.70103 29018 ft 479 kts 332°
2026-04-26 12:12 35.31399 37.68459 28306 ft 474 kts 332°
2026-04-26 12:12 35.33386 37.67377 27824 ft 471 kts 332°
2026-04-26 12:13 35.37361 37.65211 26892 ft 464 kts 332°
2026-04-26 12:13 35.40292 37.63610 26206 ft 459 kts 332°
2026-04-26 12:13 35.43166 37.62040 25547 ft 455 kts 332°
2026-04-26 12:13 35.46042 37.60467 24880 ft 450 kts 332°
2026-04-26 12:14 35.48889 37.58910 24235 ft 446 kts 332°
2026-04-26 12:14 35.51711 37.57364 23619 ft 442 kts 332°
2026-04-26 12:14 35.54502 37.55835 22891 ft 438 kts 332°
2026-04-26 12:14 35.57273 37.54315 22148 ft 434 kts 332°
2026-04-26 12:15 35.60015 37.52809 21416 ft 430 kts 332°
2026-04-26 12:15 35.62730 37.51316 20721 ft 426 kts 333°
2026-04-26 12:15 35.65426 37.49834 20027 ft 423 kts 333°
2026-04-26 12:15 35.68106 37.48360 19357 ft 419 kts 333°
2026-04-26 12:16 35.70722 37.46921 18706 ft 416 kts 333°
2026-04-26 12:16 35.73355 37.45472 17938 ft 412 kts 333°
2026-04-26 12:16 35.75958 37.44036 17060 ft 406 kts 333°
2026-04-26 12:16 35.78511 37.42627 16210 ft 399 kts 333°
2026-04-26 12:17 35.81029 37.41238 15370 ft 393 kts 333°
2026-04-26 12:17 35.83508 37.39869 14562 ft 387 kts 334°
2026-04-26 12:17 35.85949 37.38522 13786 ft 382 kts 334°
2026-04-26 12:17 35.88360 37.37191 12891 ft 377 kts 334°
2026-04-26 12:18 35.90745 37.35873 11976 ft 374 kts 334°
2026-04-26 12:18 35.93109 37.34562 11097 ft 370 kts 334°
2026-04-26 12:18 35.95436 37.33270 10497 ft 359 kts 334°
2026-04-26 12:18 35.97666 37.32072 10288 ft 339 kts 335°
2026-04-26 12:19 35.99753 37.30987 10107 ft 320 kts 335°
2026-04-26 12:19 36.01812 37.30183 9939 ft 304 kts 353°
2026-04-26 12:19 36.03879 37.30373 9557 ft 299 kts 17°
2026-04-26 12:19 36.05703 37.31579 9067 ft 301 kts 42°
2026-04-26 12:20 36.06968 37.33611 8429 ft 299 kts 68°
2026-04-26 12:20 36.07419 37.36087 7821 ft 295 kts 92°
2026-04-26 12:20 36.07302 37.38607 7211 ft 293 kts 95°
2026-04-26 12:20 36.07150 37.41113 6664 ft 290 kts 95°
2026-04-26 12:21 36.07000 37.43566 6305 ft 281 kts 95°
2026-04-26 12:21 36.06853 37.45932 5944 ft 269 kts 95°
2026-04-26 12:21 36.06793 37.48172 5554 ft 255 kts 81°
2026-04-26 12:21 36.07444 37.50156 5174 ft 248 kts 52°
2026-04-26 12:22 36.08780 37.51446 4827 ft 245 kts 21°
2026-04-26 12:22 36.10430 37.51833 4456 ft 240 kts
2026-04-26 12:22 36.12067 37.51867 4066 ft 236 kts 348°
2026-04-26 12:22 36.13520 37.50997 3713 ft 232 kts 316°
2026-04-26 12:23 36.14393 37.49390 3556 ft 220 kts 296°
2026-04-26 12:23 36.15033 37.47718 3457 ft 208 kts 295°
2026-04-26 12:23 36.15573 37.46178 3353 ft 185 kts 290°
2026-04-26 12:23 36.15905 37.44654 3239 ft 184 kts 281°
2026-04-26 12:24 36.16107 37.43090 3128 ft 185 kts 278°
2026-04-26 12:24 36.16257 37.41500 3009 ft 185 kts 277°
2026-04-26 12:24 36.16407 37.39921 2979 ft 182 kts 278°
2026-04-26 12:25 36.16709 37.36773 3002 ft 182 kts 277°
2026-04-26 12:25 36.16852 37.35276 2994 ft 168 kts 277°
2026-04-26 12:25 36.16985 37.33863 2860 ft 165 kts 277°
2026-04-26 12:25 36.17116 37.32468 2635 ft 161 kts 278°
2026-04-26 12:26 36.17242 37.31120 2440 ft 158 kts 278°
2026-04-26 12:26 36.17370 37.29774 2233 ft 158 kts 278°
2026-04-26 12:26 36.17473 37.28469 2005 ft 152 kts 279°
2026-04-26 12:26 36.17596 37.27204 1785 ft 145 kts 277°
2026-04-26 12:27 36.17722 37.25956 1562 ft 144 kts 276°
2026-04-26 12:27 36.17841 37.24701 1394 ft 146 kts 278°
2026-04-26 12:27 36.17961 37.23484 1276 ft 131 kts 277°
2026-04-26 12:27 36.18047 37.22631 1272 ft 59 kts 276°
2026-04-26 12:28 36.18083 37.22252 1271 ft 38 kts 277°
2026-04-26 12:28 36.18112 37.21957 1275 ft 31 kts 277°
2026-04-26 12:28 36.18134 37.21770 1276 ft 14 kts 287°
2026-04-26 12:28 36.18185 37.21647 1273 ft 18 kts 302°
2026-04-26 12:29 36.18261 37.21548 1270 ft 11 kts
2026-04-26 12:29 36.18299 37.21619 1271 ft 13 kts 95°
2026-04-26 12:29 36.18273 37.21884 1274 ft 18 kts 95°
2026-04-26 12:30 36.18260 37.22047 1274 ft 21 kts 97°
2026-04-26 12:30 36.18241 37.22232 1278 ft 22 kts 96°
2026-04-26 12:30 36.18222 37.22432 1277 ft 25 kts 97°
2026-04-26 12:31 36.18214 37.22675 1277 ft 9 kts 47°
2026-04-26 12:31 36.18271 37.22714 1275 ft 8 kts 34°
2026-04-26 12:31 36.18311 37.22746 1273 ft 7 kts 18°
2026-04-26 12:31 36.18345 37.22753 1276 ft 3 kts
2026-04-26 12:32 36.18364 37.22756 1275 ft 4 kts
2026-04-26 12:32 36.18376 37.22758 1274 ft 2 kts
2026-04-26 12:32 36.18380 37.22758 1273 ft 0 kts